User: anonymous   Login
Location: Camerons Lookout
(40.9833°S, 175.9333°E)
Time: 14:37:25
(UTC+00:00)
Language:

Cosmos 1400 Rocket - Orbit

View from above orbital plane
View from above orbital plane
View from above satellite
View from above satellite

Ground track
Ground track

The orbit is defined by the following mean orbital elements,

1 13403U          26071.94797751 +.00000000 +00000-0 +29777-3 0 00004
2 13403  81.1477 189.2302 0025193 153.7775 206.4740 15.24852448    07
Epoch (UTC): 12 March 2026 22:45:05
Eccentricity: 0.0025193
inclination: 81.1477°
perigee height: 474 km
apogee height: 509 km
right ascension of ascending node: 189.2302°
argument of perigee: 153.7775°
revolutions per day: 15.24852448
mean anomaly at epoch: 206.4740°

The dashed part of the orbit path shows where the satellite is in the earth's shadow,  

DLR